This is the latest recevied weather packets stored in our database for station/object OK1CBR-13. If no packets are shown the sender has not sent any weather packets the latest 10 day(s).
| Time | Temp. | Humidity | Pressure | Rain* | Wind** | Luminosity | Snow |
|---|---|---|---|---|---|---|---|
| 1777940853 | 16.11° C | 69% | 1011.8 hPa | - | - | - | - |
| 1777940253 | 15.56° C | 70% | 1011.9 hPa | - | - | - | - |
| 1777939653 | 15.56° C | 72% | 1011.9 hPa | - | - | - | - |
| 1777939053 | 16.11° C | 67% | 1012.1 hPa | - | - | - | - |
| 1777938453 | 16.11° C | 67% | 1012.3 hPa | - | - | - | - |
| 1777937853 | 15.56° C | 67% | 1012.3 hPa | - | - | - | - |
| 1777937253 | 16.11° C | 68% | 1012 hPa | - | - | - | - |
| 1777936653 | 16.11° C | 68% | 1012 hPa | - | - | - | - |
| 1777936053 | 16.11° C | 67% | 1011.9 hPa | - | - | - | - |
| 1777935453 | 16.11° C | 66% | 1011.8 hPa | - | - | - | - |
| 1777934853 | 16.11° C | 65% | 1011.8 hPa | - | - | - | - |
| 1777934253 | 16.11° C | 66% | 1011.8 hPa | - | - | - | - |
| 1777933653 | 16.11° C | 65% | 1011.9 hPa | - | - | - | - |
| 1777933053 | 16.67° C | 63% | 1012 hPa | - | - | - | - |
| 1777932453 | 16.67° C | 62% | 1012 hPa | - | - | - | - |
| 1777931853 | 16.67° C | 61% | 1012 hPa | - | - | - | - |
| 1777931253 | 17.22° C | 59% | 1012.1 hPa | - | - | - | - |
| 1777930653 | 17.22° C | 59% | 1012.2 hPa | - | - | - | - |
| 1777930053 | 17.22° C | 60% | 1012.4 hPa | - | - | - | - |
| 1777929453 | 17.22° C | 60% | 1012.4 hPa | - | - | - | - |
| 1777928853 | 17.78° C | 60% | 1012.4 hPa | - | - | - | - |
| 1777928253 | 17.78° C | 58% | 1012.5 hPa | - | - | - | - |
| 1777927653 | 17.78° C | 57% | 1012.4 hPa | - | - | - | - |
| 1777927053 | 17.78° C | 57% | 1012.4 hPa | - | - | - | - |
| 1777925853 | 17.78° C | 56% | 1012.3 hPa | - | - | - | - |
* Rain since midnight (hover to see other rain measurements)
** Current wind speed in m/s (hover to see current wind gust speed)